#timestamp,LO_Frequency,Hit,StdDev 
1593475215.2,286046997.4,N
1593475235.9,286046999.2,N
1593475255.7,286046998.5,N
1593475275.6,286046998.8,N
1593475295.4,286046998.3,N
1593475315.3,286047002.0,N
1593475335.1,286046998.5,N
1593475336.0,286046998.5,N
1593475355.8,286046999.4,N
1593475375.7,286046998.9,N
1593475395.5,286046998.0,N
1593475415.3,286046997.9,N
1593475435.2,286046995.7,N
1593475455.0,286046998.0,N
1593475455.9,286046998.0,N
1593475475.8,286046994.9,N
1593475495.6,286046997.6,N
1593475515.4,286046997.6,N
1593475535.3,286046995.5,N
1593475555.1,286046996.8,N
1593475575.9,286046995.2,Y
1593475595.7,286046999.3,P
1593475615.5,286047000.3,N
1593475635.4,286047002.0,N
1593475655.2,286046996.6,N
1593475675.0,286046999.0,N
1593475676.0,286046999.0,N
1593475695.8,286046998.2,N
1593475715.6,286047001.2,N
1593475735.5,286046998.9,N
1593475755.3,286046998.3,N
1593475775.1,286047001.2,N
1593475795.9,286046996.7,N
1593475815.7,286046998.3,N
1593475835.6,286046998.1,N
1593475855.4,286046998.3,N
1593475875.2,286046998.6,N
1593475895.1,286047000.8,N
1593475896.0,286047000.8,N
1593475915.8,286046998.8,N
1593475935.7,286047000.5,N
1593475955.5,286047002.7,N
1593475975.3,286047000.5,N
1593475995.2,286046999.8,N
1593476015.0,286047001.0,N
1593476015.9,286047001.0,N
1593476035.7,286047001.9,N
1593476055.6,286047002.3,N
1593476075.4,286047003.7,N
1593476095.3,286046999.7,N
1593476115.1,286047000.2,N
1593476135.8,286047002.8,N
1593476155.7,286047002.7,N
1593476175.5,286047001.0,N
1593476195.4,286047000.0,N
1593476215.2,286046999.7,N
1593476235.0,286047002.2,N
1593476235.9,286047002.2,N
1593476255.8,286047002.5,N
1593476275.6,286047001.9,N
1593476295.4,286047002.3,N
1593476315.3,286046999.7,N
1593476335.1,286047002.0,N
1593476355.9,286047001.5,N
1593476375.7,286047002.1,N
1593476395.5,286047000.1,N
1593476415.4,286047002.5,N
1593476435.2,286047001.8,N
1593476455.1,286047000.4,N
1593476456.0,286047000.4,N
1593476475.8,286046999.7,N
1593476495.6,286047001.6,N
1593476515.5,286047002.3,N
1593476535.3,286047000.3,N
1593476555.1,286046998.1,N
1593476575.9,286046998.1,N
1593476595.7,286046998.2,N
1593476615.6,286046998.1,N
1593476635.4,286046999.6,N
1593476655.2,286046999.5,N
1593476675.1,286046998.7,N
1593476676.0,286046998.7,N
1593476695.8,286047000.3,N
1593476715.7,286046998.5,N
1593476735.5,286046998.3,N
1593476755.3,286046998.3,N
1593476775.2,286046998.3,N
1593476795.0,286046998.5,N
1593476795.9,286046998.5,N
1593476815.8,286047002.4,N
1593476835.6,286046999.9,N
1593476855.4,286046998.5,N
1593476875.3,286046998.2,N
1593476895.1,286047000.7,N
1593476915.9,286047002.7,N
1593476935.7,286047000.3,N
1593476955.5,286047000.8,N
1593476975.4,286047002.6,N
1593476995.2,286047002.7,N
1593477015.0,286047000.5,N
1593477016.0,286047000.5,N
1593477035.8,286046998.2,N
1593477055.6,286047000.0,N
1593477075.5,286047000.5,N
1593477095.3,286047000.8,N
1593477115.1,286047000.7,N
1593477135.9,286046998.9,N
1593477155.7,286046998.5,N
1593477175.6,286046996.8,N
1593477195.4,286047002.2,N
1593477215.2,286047000.3,N
1593477235.1,286047003.5,N
1593477236.0,286047003.5,N
1593477255.8,286047001.7,N
1593477275.7,286047000.2,N
1593477295.5,286047002.8,N
1593477315.4,286047000.2,N
1593477335.2,286047000.6,N
1593477355.0,286047002.3,N
1593477355.9,286047002.3,N
1593477375.8,286047000.3,N
1593477395.6,286047000.4,N
1593477415.4,286046999.7,N
1593477435.3,286046999.8,N
1593477455.1,286047000.3,N
1593477475.9,286047002.7,N
1593477495.7,286047002.2,N
1593477515.5,286046999.9,N
1593477535.4,286047001.5,N
1593477555.2,286047002.5,N
1593477575.1,286047000.9,N
1593477576.0,286047000.9,N
1593477595.8,286047000.3,N
1593477615.6,286047001.1,N
1593477635.5,286047001.6,N
1593477655.3,286047003.1,N
1593477675.1,286047003.9,N
1593477695.9,286047001.9,N
1593477715.7,286046999.8,N
1593477735.6,286046999.7,N
1593477755.4,286046999.8,N
1593477775.2,286047000.6,N
1593477795.1,286047001.4,N
1593477796.0,286047001.4,N
1593477815.8,286047001.5,N
1593477835.7,286047005.9,Y
1593477855.5,286047005.9,P
1593477875.3,286047001.4,N
1593477895.2,286047002.0,N
1593477915.0,286047003.8,N
1593477915.9,286047003.8,N
1593477935.7,286047000.2,N
1593477955.6,286047001.0,N
1593477975.4,286046998.5,N
1593477995.3,286046998.2,N
1593478015.1,286047002.0,N
1593478016.0,286047002.0,N
1593478035.8,286047002.3,N
1593478055.7,286047000.4,N
1593478075.5,286047000.6,N
1593478095.4,286047002.1,N
1593478115.2,286047005.2,N
1593478135.0,286047002.9,N
1593478135.9,286047002.9,N
1593478155.8,286047003.0,N
1593478175.6,286047004.9,N
1593478195.4,286047005.3,N
1593478215.3,286047007.8,Y
1593478235.1,286047009.2,P
1593478255.9,286047004.4,N
1593478275.7,286047009.2,P
1593478295.5,286047008.8,N
1593478315.4,286047006.5,N
1593478335.2,286047008.8,Y
1593478355.1,286047002.1,P
1593478356.0,286047002.1,N
1593478375.8,286047001.1,N
1593478395.6,286047002.0,N
1593478415.5,286047001.7,N
1593478435.3,286047002.7,N
1593478455.1,286047000.6,N
1593478475.9,286046998.8,N
1593478495.7,286046999.0,N
1593478515.6,286046997.7,N
1593478535.4,286046995.0,N
1593478555.2,286046998.0,N
1593478575.1,286046996.4,N
1593478576.0,286046996.4,N
1593478595.8,286046996.4,N
1593478615.7,286046996.4,N
1593478635.5,286046993.4,N
1593478655.3,286046993.3,N
1593478675.2,286046993.8,N
1593478695.0,286046994.6,N
1593478695.9,286046994.6,N
1593478715.8,286046996.1,N
1593478735.6,286046990.7,N
1593478755.4,286046988.5,Y
1593478775.3,286046994.7,P
1593478795.1,286046992.1,P
